Regional Weather Roundup
Issued by NWS

Home | Current Version | Previous Version | Text Only | Print | Product List | Glossary On
Versions: 1 2 3 4 5 6 7 8 9 10 11 12 13 14 15 16 17 18 19 20 21 22 23 24 25 26 27 28 29 30 31 32 33 34 35 36 37 38 39 40 41 42 43 44 45 46 47 48 49 50
000
ASUS45 KSLC 310110
RWRUT

UTAH REGIONAL WEATHER ROUNDUP
NATIONAL WEATHER SERVICE SALT LAKE CITY UT
600 PM MST FRI JAN 30 2015

UTZ001>011-023>025-310200-

NORTHERN UTAH

CITY           SKY/WX    TMP DP  RH WIND       PRES   REMARKS
BRIGHAM CITY   CLOUDY    46  32  56 S5        30.01S
HILL AFB       CLOUDY    42  30  61 E20G28    29.98F
LOGAN          CLOUDY    39  33  79 S3        30.04F
OGDEN          CLOUDY    45  34  65 W5        29.98F
PROVO AIRPORT  CLOUDY    41  34  75 NW14      29.96F
SALT LAKE CITY CLOUDY    41  36  82 W7        29.99S
VERNAL         LGT RAIN  38  38 100 CALM      30.02F FOG
WENDOVER       CLOUDY    45  36  70 N8        30.01F
HEBER CITY     MIX PCPN  36  32  87 CALM      30.00S
WEST JORDAN    CLOUDY    41  37  87 NW7       29.98F

$$

UTZ012>022-026-027-310200-

SOUTHERN/CENTRAL UTAH

CITY           SKY/WX    TMP DP  RH WIND       PRES   REMARKS
BLANDING       CLOUDY    33  33 100 CALM      30.07F
BRYCE CANYON   LGT SNOW  30  29  96 S7        29.94R FOG     WCI  23
CEDAR CITY     LGT RAIN  39  37  92 CALM      29.88R
DELTA          CLOUDY    40  39  96 N12       29.93S WCI  33
HANKSVILLE     CLOUDY    43  37  81 CALM      30.00S
MILFORD        LGT RAIN  41  38  89 N14       29.90S
MOAB/CYNLANDS  LGT RAIN  42  41  96 CALM      29.97S
PRICE          CLOUDY    39  36  89 CALM      29.98F
ST GEORGE      CLOUDY    48  43  81 CALM      29.89F

$$

REGIONAL REPORTS     COLORADO/ARIZONA

CITY           SKY/WX    TMP DP  RH WIND       PRES   REMARKS
CRAIG, CO      CLOUDY    37  31  78 W5        30.03F WCI  33
GRAND JUNCTION CLOUDY    41  37  86 S3        29.97F
RIFLE          LGT RAIN  39  36  89 S3        29.99F
MONTROSE       CLOUDY    40  36  86 CALM      30.00F
CORTEZ         LGT RAIN  38  34  85 SW5       30.00S WCI  34
PAGE, AZ       NOT AVBL
GRAND CANYON   CLOUDY    37  35  92 NE8       29.90S WCI  31
KINGMAN        CLOUDY    48  45  89 N3        29.85S
FLAGSTAFF      CLOUDY    39  37  92 S6        29.90S WCI  35

$$

REGIONAL REPORTS    NEVADA/IDAHO/WYOMING

CITY           SKY/WX    TMP DP  RH WIND       PRES   REMARKS
LAS VEGAS, NV  LGT RAIN  52  42  69 N7        29.83R
ELY            CLOUDY    36  34  92 N20G26    29.95S WCI  25
ELKO           CLOUDY    44  31  60 NE15      30.01S
POCATELLO, ID  PTCLDY    35  31  85 SW6       30.10F WCI  30
BURLEY         CLOUDY    35  31  85 W8        30.12S WCI  29
EVANSTON, WY   CLOUDY    34  24  67 NE9       30.04F WCI  27
ROCK SPRINGS   CLOUDY    34  30  85 E13       30.07S WCI  25
KEMMERER       CLOUDY    32  27  80 NE8       30.07S WCI  25

$$



USA.gov is the U.S. government's official web portal to all federal, state and local government web resources and services.